Theta_e
298 298 299 299 299 300 300 300 300 300 300 300 300 301 302 301 302 299 300 300 299 299 300 302 301 300 303 304 304 305 307 308 308 308 308 305 303 303 303 302 303 303 303 303 304
298 298 299 299 300 300 300 300 300 300 300 299 299 300 301 303 303 299 299 300 300 300 301 302 301 302 303 304 303 306 308 306 304 303 303 303 303 303 303 303 303 304 305 305 305
299 299 299 300 300 299 299 300 299 299 299 299 300 301 302 302 304 302 299 300 300 301 303 304 302 302 304 304 304 305 306 304 303 303 302 302 302 304 304 303 304 305 305 305 304
300 300 300 299 298 298 298 300 299 299 299 300 300 298 300 303 305 299 300 300 300 301 303 304 304 304 305 305 304 305 304 302 303 303 302 303 304 304 304 304 305 304 304 304 304
301 302 301 299 299 298 299 299 299 299 299 299 300 299 301 301 301 299 300 301 300 302 303 304 304 305 306 305 305 305 305 305 305 304 304 304 304 303 304 304 304 304 303 303 303
302 303 302 301 300 299 299 299 299 298 298 298 298 299 301 302 299 300 301 301 300 302 303 303 304 304 305 305 305 304 304 304 305 304 304 304 303 303 304 304 304 304 303 303 303
305 304 305 305 304 303 301 299 299 298 298 298 297 299 300 300 300 301 301 301 300 301 303 301 303 304 305 306 304 304 305 305 306 305 304 302 303 303 304 304 304 304 303 303 302
314 312 307 307 308 308 305 300 299 298 298 297 299 300 300 297 298 300 301 301 301 301 301 301 302 304 304 304 305 305 306 306 307 305 304 303 302 304 305 304 304 303 303 302 300
315 315 315 313 311 310 310 304 301 298 298 297 298 301 299 298 298 300 300 300 301 302 301 301 303 304 306 306 309 307 303 305 305 305 305 304 302 303 304 304 303 303 301 299 299
316 315 315 315 315 311 311 309 305 299 301 297 297 300 299 298 298 300 301 300 301 303 305 304 305 308 305 305 304 302 304 304 304 305 305 303 303 303 304 302 302 300 300 300 299
316 317 316 316 315 313 312 308 306 304 302 297 297 298 298 298 298 301 301 302 303 305 307 303 310 306 303 303 303 303 304 304 305 304 303 303 302 302 303 301 301 300 299 298 298
316 316 317 317 316 313 312 305 300 302 299 298 295 296 297 298 300 301 302 303 301 304 305 307 310 303 303 303 303 303 304 304 304 303 302 302 302 302 302 301 300 299 299 298 297
316 315 316 317 315 315 313 306 302 298 302 298 296 296 296 298 300 301 301 302 300 301 301 304 305 302 302 303 303 303 303 301 301 302 302 302 302 303 302 301 300 299 298 297 296
317 316 316 316 315 314 313 309 305 299 304 304 298 298 298 299 301 299 300 301 304 301 302 304 302 302 303 303 302 301 303 302 301 297 299 301 299 302 302 302 300 299 298 297 295
316 316 315 316 314 314 311 311 307 302 314 301 297 295 297 300 299 301 299 301 303 302 300 305 302 303 303 303 302 302 301 301 302 297 298 302 298 302 301 301 298 297 297 296 294
314 315 315 314 312 312 313 311 308 312 315 300 297 298 300 300 301 300 302 301 300 300 301 302 300 299 302 301 301 302 301 301 301 297 301 296 296 299 301 299 296 297 296 295 293
312 312 311 310 311 312 312 310 312 315 301 306 300 298 298 300 301 301 302 303 303 302 305 304 302 299 298 302 302 300 297 298 298 300 300 293 298 298 299 297 296 295 295 293 292
311 311 310 309 309 311 310 306 316 313 307 297 297 298 300 299 300 299 302 304 300 300 301 299 299 299 299 301 300 300 297 296 296 298 300 294 296 300 297 298 296 295 294 292 291
311 310 308 309 309 308 309 312 315 309 299 299 302 302 304 299 298 300 302 303 301 299 300 300 301 298 298 299 299 300 299 298 294 293 297 296 299 299 297 292 294 294 293 291 290
310 309 309 309 309 307 305 313 310 298 298 299 307 302 302 301 300 301 303 302 301 299 298 298 296 298 298 299 298 298 297 295 294 296 296 296 295 298 290 289 291 292 292 291 290
310 308 306 307 307 305 309 309 305 297 297 299 302 298 299 300 300 303 302 300 300 298 298 297 294 297 297 294 298 297 296 294 294 297 300 297 296 292 289 288 289 290 292 291 290
308 305 304 304 303 301 305 304 296 297 296 297 297 298 299 300 301 298 302 301 299 298 298 298 299 294 297 301 298 299 297 298 293 293 298 300 299 293 289 288 293 293 292 291 290
308 304 303 303 306 304 299 298 297 298 297 297 298 297 296 298 298 300 300 297 298 298 298 297 295 293 299 297 296 295 298 299 296 297 294 296 296 290 292 290 293 293 293 291 290
307 302 300 300 301 303 303 304 302 297 297 296 299 296 297 297 297 298 299 297 297 298 296 297 298 293 295 294 292 294 297 298 296 291 294 297 298 298 292 289 291 293 292 292 288
307 304 303 302 301 302 304 305 303 301 297 296 297 297 298 298 297 295 297 297 297 297 297 296 291 296 296 295 295 295 294 294 294 296 292 295 291 296 295 294 293 294 292 290 288
306 304 303 302 302 302 303 304 303 302 298 298 297 298 298 297 299 299 298 298 298 296 296 295 290 289 289 293 294 293 294 294 293 292 291 294 295 295 295 295 294 292 292 288 287
306 306 305 304 302 303 303 303 303 301 301 301 297 299 297 297 297 297 296 296 296 296 297 292 291 287 291 292 290 290 289 290 291 290 289 290 292 286 286 285 292 292 291 287 287
Wind_Speed
13 14 14 14 13 12 11 11 10 8 7 6 4 1 2 10 17 14 13 15 15 12 11 11 9 8 7 6 5 2 2 4 6 7 4 14 10 11 9 12 17 15 18 21 19
13 13 14 14 14 13 13 12 10 9 9 8 7 4 1 2 8 19 16 11 12 11 13 11 9 8 4 4 5 3 2 7 5 8 7 13 11 13 9 18 21 20 11 11 20
13 13 14 14 14 14 13 12 11 10 9 8 6 5 4 4 3 10 13 11 12 12 12 12 6 5 5 4 6 6 3 6 7 9 9 10 15 14 13 8 18 20 22 22 21
16 15 16 16 16 16 13 11 11 11 11 8 5 8 10 11 2 10 12 12 11 13 11 8 4 2 3 4 5 4 3 4 7 9 6 9 15 14 24 25 22 18 21 18 15
16 17 16 17 17 17 14 11 11 9 9 7 4 4 5 5 4 10 13 12 9 11 12 8 11 4 4 3 3 2 7 8 10 10 12 11 15 13 27 24 17 13 12 14 16
16 17 16 17 18 18 15 11 10 8 9 6 5 8 7 3 6 10 14 11 8 9 10 10 5 4 4 3 4 6 10 16 7 5 8 9 20 11 9 10 16 12 15 20 22
17 17 17 19 20 20 18 11 11 9 7 3 2 5 7 3 6 10 14 10 9 8 6 4 7 4 4 1 4 6 5 10 8 4 3 6 9 7 9 8 10 14 19 18 13
16 17 18 18 21 22 22 12 11 10 7 4 2 4 2 5 4 11 12 6 9 7 3 4 7 6 4 3 3 4 0 5 2 7 5 3 9 12 9 12 18 18 13 8 11
15 16 17 18 19 22 23 16 13 8 7 5 3 3 2 5 6 11 13 8 5 6 4 4 7 2 1 4 2 4 3 6 7 7 4 2 11 9 25 21 13 10 5 8 12
13 14 16 18 19 18 21 17 13 4 12 1 5 1 4 5 8 8 13 5 2 4 3 3 2 0 4 4 1 4 4 4 10 7 14 11 18 18 20 7 5 3 4 9 15
12 14 15 17 19 19 21 14 12 4 11 3 1 1 4 11 4 6 11 6 5 1 3 4 1 2 5 4 3 6 8 10 13 11 8 9 19 21 8 4 4 4 9 15 20
13 13 17 16 19 17 18 12 10 9 7 4 2 2 5 8 4 4 8 1 4 2 4 2 1 6 2 4 6 7 9 8 10 11 13 13 18 17 10 6 3 4 10 19 27
14 15 15 16 18 17 19 17 14 9 5 2 3 1 3 5 3 5 7 2 4 2 2 0 4 2 0 3 5 6 5 5 11 15 8 7 8 5 5 6 6 6 15 24 29
16 15 16 14 8 18 15 18 16 10 4 3 2 1 3 4 2 5 5 1 3 1 3 3 4 1 4 3 4 4 8 12 13 5 3 6 4 7 9 7 7 8 21 28 29
18 18 15 13 12 11 12 14 16 5 4 1 1 2 4 2 5 2 4 2 3 1 2 1 3 2 1 1 3 8 12 15 7 2 4 2 1 4 7 3 5 12 26 27 28
16 14 13 14 11 10 10 13 11 4 5 1 1 2 3 3 1 4 1 2 2 1 5 4 1 2 4 7 3 9 7 10 3 2 3 2 3 5 2 2 8 17 25 27 32
15 16 14 11 9 9 8 8 3 3 2 3 2 1 2 3 1 3 2 1 3 4 1 2 1 2 2 4 4 7 6 4 5 2 5 5 3 9 4 3 9 17 27 29 32
12 10 9 9 9 7 5 4 4 2 3 1 2 4 2 4 2 3 3 2 3 1 2 2 5 3 1 2 1 3 2 3 4 4 7 5 5 6 6 9 15 18 22 27 30
11 11 10 9 9 6 3 2 4 3 1 4 2 2 1 1 1 2 2 3 4 2 3 1 4 3 1 2 4 2 1 2 2 2 2 5 7 3 3 4 13 19 20 25 28
10 12 11 10 8 6 2 4 3 2 1 1 2 1 2 0 2 2 3 1 4 2 2 2 4 1 1 2 5 2 1 2 0 4 5 5 7 5 5 6 8 10 16 24 29
10 4 5 7 8 5 3 4 2 2 1 1 1 2 4 2 1 1 2 2 4 5 3 3 3 4 3 4 6 2 1 2 1 2 3 4 6 6 7 4 7 9 19 27 31
7 2 4 8 3 1 2 2 1 3 2 2 1 2 3 1 3 3 2 1 5 8 3 3 0 4 7 5 5 1 3 3 3 5 4 2 9 5 7 6 6 10 23 28 30
4 4 8 12 3 3 1 1 3 3 3 3 2 2 3 2 3 5 2 3 8 5 2 5 2 4 4 4 2 3 4 4 0 2 6 2 7 3 5 7 2 12 18 25 27
5 1 3 11 5 1 4 3 2 4 3 4 3 2 2 4 5 4 3 3 7 4 2 1 3 6 5 5 2 4 5 7 7 3 4 12 20 24 8 7 8 14 19 23 24
12 5 5 3 5 7 4 4 4 4 4 8 3 7 7 4 3 4 5 4 6 7 5 3 5 3 9 11 10 14 15 11 12 16 5 21 7 24 16 14 13 12 16 22 26
6 5 6 4 3 9 8 5 10 5 8 5 5 7 10 6 6 4 3 5 5 8 6 4 3 1 5 8 6 11 17 15 17 13 14 23 27 21 23 7 10 12 11 19 23
21 14 6 7 4 5 6 7 9 10 11 3 10 6 8 13 14 11 6 2 2 7 8 5 2 1 5 3 7 7 8 8 5 8 7 7 11 3 3 5 12 12 9 14 19
Wind_Direction
22 26 28 27 26 24 20 14 18 20 26 30 33 82 114 52 44 38 31 19 15 15 28 41 9 40 39 32 36 6 291 268 346 23 8 17 2 334 326 289 288 273 274 286 309
27 27 28 28 26 20 15 14 16 19 18 13 12 15 39 31 68 22 20 23 21 13 26 26 20 43 47 26 8 343 279 31 1 6 348 339 326 321 316 302 292 297 310 310 314
32 32 28 28 24 20 14 15 18 14 9 16 25 43 69 60 75 2 6 13 21 25 20 24 10 47 71 51 13 4 329 11 16 15 348 318 309 317 313 274 287 325 319 317 316
32 32 27 22 20 16 13 15 11 12 13 17 54 75 63 43 38 338 1 10 21 26 26 43 31 67 55 18 11 331 52 346 326 330 324 309 303 292 279 273 285 301 306 308 313
33 33 31 25 20 15 15 16 14 14 14 21 65 36 62 59 36 358 3 6 21 34 26 29 44 14 93 339 334 289 5 316 298 284 295 293 285 283 288 290 285 301 313 314 311
31 30 30 26 22 16 11 9 10 12 15 41 73 52 46 75 6 354 3 6 22 44 18 49 38 62 69 47 311 330 299 284 267 264 286 309 300 312 268 285 298 298 308 310 309
32 27 24 21 19 14 6 359 3 6 10 18 66 46 36 99 18 -0 360 6 16 32 28 61 71 49 1 8 338 297 298 286 204 186 279 347 285 191 258 285 267 282 291 309 305
29 25 20 13 13 11 5 1 356 1 5 4 18 90 86 11 337 358 4 5 2 26 29 70 65 60 53 316 221 278 159 355 143 192 166 110 279 299 318 308 289 296 307 309 311
17 15 14 11 6 8 7 2 355 8 17 21 76 89 55 344 351 347 360 1 1 346 43 66 64 60 247 321 254 60 268 297 316 223 243 207 274 263 295 289 311 308 321 312 300
3 10 7 5 3 359 3 359 357 358 10 43 60 89 3 321 318 340 350 10 349 352 359 13 21 324 40 14 13 306 309 315 303 305 300 290 271 280 303 327 318 27 288 299 313
341 347 351 355 358 0 4 17 8 11 354 34 345 350 311 332 326 357 351 11 330 16 0 35 348 55 47 36 327 298 292 288 287 306 309 278 291 288 267 161 191 231 326 319 315
325 332 340 346 352 358 2 37 21 319 316 305 310 342 324 348 332 325 13 288 40 58 345 27 173 68 12 276 284 293 285 283 283 323 322 293 291 279 260 190 171 314 302 323 323
309 313 331 338 340 352 358 10 0 350 275 235 243 228 292 344 319 317 11 1 95 55 61 146 58 75 268 317 312 288 260 322 302 333 274 297 283 158 155 162 210 256 317 324 325
297 305 318 329 338 343 349 347 354 354 30 224 157 275 348 341 247 295 353 342 156 103 1 277 91 3 333 281 61 287 1 325 315 29 304 49 281 308 135 191 187 320 327 325 328
291 295 305 303 314 334 333 340 345 16 334 55 91 303 333 295 317 222 339 289 321 140 89 37 346 351 241 258 36 248 321 291 290 91 345 182 77 257 149 210 348 335 328 326 333
278 279 285 291 303 320 337 336 339 29 255 358 331 286 336 253 182 310 255 338 283 247 171 245 16 254 316 313 275 317 304 306 98 155 257 192 79 265 225 296 326 335 327 335 336
268 272 279 282 294 320 328 343 24 192 85 314 306 337 192 293 27 353 324 202 351 26 30 225 193 125 270 303 114 20 359 334 347 253 242 218 306 251 151 32 2 333 330 338 334
275 274 277 278 281 297 317 58 226 276 254 78 278 245 314 1 86 319 270 231 120 66 295 29 321 178 247 59 114 38 65 127 279 309 298 227 237 261 141 38 355 329 330 332 331
262 254 275 267 264 280 170 192 243 213 312 335 228 295 202 155 336 342 270 334 61 98 161 330 262 123 0 37 110 129 256 29 268 237 308 239 275 63 91 349 348 338 337 331 334
254 257 251 261 251 227 134 228 219 230 0 235 246 46 312 8 304 56 216 54 124 107 126 100 305 77 156 141 73 145 114 14 265 306 296 290 287 245 306 318 316 320 332 335 336
238 226 236 228 201 188 231 221 214 204 198 221 305 274 245 267 242 245 253 130 103 136 97 126 121 267 137 196 169 141 232 248 131 204 274 304 264 200 199 234 274 299 343 342 345
223 209 216 179 142 186 223 183 197 185 195 202 259 283 202 118 275 254 261 202 145 152 179 154 271 265 229 114 39 97 233 163 138 270 237 253 269 165 183 211 247 349 360 348 354
220 196 195 179 207 195 202 231 211 190 215 170 202 249 51 217 250 210 205 112 175 183 193 174 229 321 332 7 89 215 206 198 49 21 225 226 264 219 226 241 29 6 353 345 344
185 168 177 202 229 224 171 209 217 221 221 184 194 130 159 230 230 293 246 149 191 189 179 232 255 198 211 211 111 258 207 209 180 200 257 238 276 281 269 322 318 332 331 334 339
204 226 192 184 230 203 183 168 180 230 233 192 202 213 169 238 194 229 228 140 187 204 209 210 233 261 262 269 267 263 262 230 225 226 211 270 265 279 296 302 298 307 320 330 339
214 170 188 204 230 188 199 210 226 198 162 223 218 188 203 223 207 192 196 187 191 173 185 191 262 91 282 251 259 272 258 235 230 240 258 261 275 282 279 263 278 290 327 335 335
231 216 207 184 179 183 198 211 208 165 216 240 201 177 210 237 248 272 236 265 221 170 190 156 207 73 266 340 309 303 244 179 200 188 168 192 235 210 285 259 268 285 328 332 334